Time,TemperatureF,DewpointF,PressureIn,WindDirection,WindDirectionDegrees,WindSpeedMPH,WindSpeedGustMPH,Humidity,HourlyPrecipIn,Conditions,Clouds,dailyrainin,SoftwareType,DateUTC
2013-03-06 00:01:00,64.9,61.0,30.02,WSW,249,4.0,11.0,87,0.00,,,0.00,meteohub,2013-03-06 05:01:00,
2013-03-06 00:04:00,64.9,61.0,30.02,WSW,258,1.0,11.0,87,0.00,,,0.00,meteohub,2013-03-06 05:04:00,
2013-03-06 00:07:00,64.9,61.0,30.02,WSW,240,2.0,11.0,87,0.00,,,0.00,meteohub,2013-03-06 05:07:00,
2013-03-06 00:12:00,64.9,61.0,30.02,WSW,247,5.0,11.0,87,0.00,,,0.00,meteohub,2013-03-06 05:12:00,
2013-03-06 00:13:00,65.1,61.2,30.02,SSW,201,3.0,11.0,87,0.00,,,0.00,meteohub,2013-03-06 05:13:00,
2013-03-06 00:19:00,65.1,60.8,30.02,SW,229,6.0,13.0,86,0.00,,,0.00,meteohub,2013-03-06 05:19:00,
2013-03-06 00:25:00,65.1,60.8,30.02,SW,221,3.0,12.0,86,0.00,,,0.00,meteohub,2013-03-06 05:25:00,
2013-03-06 00:31:00,65.1,60.8,30.01,WSW,248,6.0,12.0,86,0.00,,,0.00,meteohub,2013-03-06 05:31:00,
2013-03-06 00:37:00,65.1,60.8,30.01,WNW,288,2.0,12.0,86,0.00,,,0.00,meteohub,2013-03-06 05:37:00,
2013-03-06 00:42:00,65.1,61.2,30.01,WSW,240,3.0,11.0,87,0.00,,,0.00,meteohub,2013-03-06 05:42:00,
2013-03-06 00:47:00,65.1,61.2,30.01,SW,227,5.0,11.0,87,0.00,,,0.00,meteohub,2013-03-06 05:47:00,
2013-03-06 00:52:00,65.1,61.2,30.01,SW,233,8.0,10.0,87,0.00,,,0.00,meteohub,2013-03-06 05:52:00,
2013-03-06 00:57:00,64.9,61.3,30.01,WSW,248,2.0,10.0,88,0.00,,,0.00,meteohub,2013-03-06 05:57:00,
2013-03-06 01:02:00,64.9,61.3,30.00,West,260,5.0,10.0,88,0.00,,,0.00,meteohub,2013-03-06 06:02:00,
2013-03-06 01:07:00,64.9,61.3,30.00,WSW,252,3.0,10.0,88,0.00,,,0.00,meteohub,2013-03-06 06:07:00,
2013-03-06 01:12:00,64.8,61.5,30.00,WSW,238,8.0,10.0,89,0.00,,,0.00,meteohub,2013-03-06 06:12:00,
2013-03-06 01:17:00,64.8,61.5,30.00,WSW,257,5.0,10.0,89,0.00,,,0.00,meteohub,2013-03-06 06:17:00,
2013-03-06 01:22:00,64.6,61.5,29.99,SW,233,4.0,10.0,90,0.00,,,0.00,meteohub,2013-03-06 06:22:00,
2013-03-06 01:27:00,64.6,61.5,29.99,SW,232,8.0,8.0,90,0.00,,,0.00,meteohub,2013-03-06 06:27:00,
2013-03-06 01:32:00,64.8,61.7,29.99,West,272,6.0,11.0,90,0.00,,,0.00,meteohub,2013-03-06 06:32:00,
2013-03-06 01:37:00,64.8,61.7,29.99,SW,222,3.0,11.0,90,0.00,,,0.00,meteohub,2013-03-06 06:37:00,
2013-03-06 01:42:00,64.8,61.7,29.99,West,267,4.0,11.0,90,0.00,,,0.00,meteohub,2013-03-06 06:42:00,
2013-03-06 01:47:00,64.9,61.9,29.99,West,263,3.0,11.0,90,0.00,,,0.00,meteohub,2013-03-06 06:47:00,
2013-03-06 01:52:00,64.9,61.9,29.99,SSW,209,7.0,14.0,90,0.00,,,0.00,meteohub,2013-03-06 06:52:00,
2013-03-06 01:57:00,65.1,62.1,29.99,SW,235,10.0,14.0,90,0.00,,,0.00,meteohub,2013-03-06 06:57:00,
2013-03-06 02:02:00,65.1,62.1,29.99,SW,225,3.0,14.0,90,0.00,,,0.00,meteohub,2013-03-06 07:02:00,
2013-03-06 02:07:00,64.9,62.2,29.98,West,263,4.0,12.0,91,0.00,,,0.00,meteohub,2013-03-06 07:07:00,
2013-03-06 02:12:00,65.1,62.4,29.98,WSW,241,5.0,12.0,91,0.00,,,0.00,meteohub,2013-03-06 07:12:00,
2013-03-06 02:17:00,65.1,62.4,29.98,WSW,251,5.0,12.0,91,0.00,,,0.00,meteohub,2013-03-06 07:17:00,
2013-03-06 02:22:00,65.3,62.2,29.98,WNW,283,4.0,12.0,90,0.00,,,0.00,meteohub,2013-03-06 07:22:00,
2013-03-06 02:27:00,65.3,62.2,29.97,SW,227,4.0,9.0,90,0.00,,,0.00,meteohub,2013-03-06 07:27:00,
2013-03-06 02:32:00,65.5,62.4,29.97,SSW,213,7.0,10.0,90,0.00,,,0.00,meteohub,2013-03-06 07:32:00,
2013-03-06 02:37:00,65.5,62.4,29.97,WSW,253,3.0,10.0,90,0.00,,,0.00,meteohub,2013-03-06 07:37:00,
2013-03-06 02:42:00,65.7,63.0,29.97,WSW,250,7.0,10.0,91,0.00,,,0.00,meteohub,2013-03-06 07:42:00,
2013-03-06 02:47:00,65.7,63.0,29.97,WSW,258,7.0,11.0,91,0.00,,,0.00,meteohub,2013-03-06 07:47:00,
2013-03-06 02:52:00,65.7,63.0,29.97,SSW,211,4.0,11.0,91,0.00,,,0.00,meteohub,2013-03-06 07:52:00,
2013-03-06 02:57:00,65.8,63.1,29.96,West,271,5.0,12.0,91,0.00,,,0.00,meteohub,2013-03-06 07:57:00,
2013-03-06 03:02:00,65.8,63.1,29.96,SW,232,4.0,12.0,91,0.00,,,0.00,meteohub,2013-03-06 08:02:00,
2013-03-06 03:07:00,65.8,63.1,29.96,SW,233,8.0,12.0,91,0.00,,,0.00,meteohub,2013-03-06 08:07:00,
2013-03-06 03:12:00,66.0,63.3,29.96,West,269,7.0,12.0,91,0.00,,,0.00,meteohub,2013-03-06 08:12:00,
2013-03-06 03:17:00,66.0,63.3,29.96,WNW,282,6.0,10.0,91,0.00,,,0.00,meteohub,2013-03-06 08:17:00,
2013-03-06 03:22:00,65.7,63.5,29.96,West,263,1.0,10.0,93,0.01,,,0.01,meteohub,2013-03-06 08:22:00,
2013-03-06 03:27:00,65.7,63.5,29.96,WSW,254,6.0,11.0,93,0.01,,,0.01,meteohub,2013-03-06 08:27:00,
2013-03-06 03:32:00,65.5,63.3,29.96,WSW,244,5.0,11.0,93,0.01,,,0.01,meteohub,2013-03-06 08:32:00,
2013-03-06 03:37:00,65.5,63.3,29.96,West,264,10.0,11.0,93,0.01,,,0.01,meteohub,2013-03-06 08:37:00,
2013-03-06 03:42:00,65.7,63.5,29.96,WNW,286,6.0,10.0,93,0.01,,,0.01,meteohub,2013-03-06 08:42:00,
2013-03-06 03:47:00,65.7,63.5,29.96,West,272,3.0,10.0,93,0.01,,,0.01,meteohub,2013-03-06 08:47:00,
2013-03-06 03:52:00,65.8,63.7,29.96,WSW,254,3.0,11.0,93,0.01,,,0.01,meteohub,2013-03-06 08:52:00,
2013-03-06 03:57:00,65.8,63.7,29.96,West,279,2.0,11.0,93,0.01,,,0.01,meteohub,2013-03-06 08:57:00,
2013-03-06 04:02:00,65.8,63.7,29.96,WSW,252,4.0,11.0,93,0.01,,,0.01,meteohub,2013-03-06 09:02:00,
2013-03-06 04:07:00,65.8,63.7,29.96,SW,236,2.0,11.0,93,0.01,,,0.01,meteohub,2013-03-06 09:07:00,
2013-03-06 04:12:00,65.8,63.7,29.95,WNW,284,2.0,10.0,93,0.01,,,0.01,meteohub,2013-03-06 09:12:00,
2013-03-06 04:17:00,65.7,63.5,29.95,West,266,3.0,10.0,93,0.01,,,0.01,meteohub,2013-03-06 09:17:00,
2013-03-06 04:22:00,65.8,63.7,29.96,WSW,250,8.0,10.0,93,0.00,,,0.01,meteohub,2013-03-06 09:22:00,
2013-03-06 04:27:00,65.8,63.7,29.96,WSW,252,2.0,9.0,93,0.00,,,0.01,meteohub,2013-03-06 09:27:00,
2013-03-06 04:32:00,65.7,63.5,29.95,West,265,4.0,9.0,93,0.00,,,0.01,meteohub,2013-03-06 09:32:00,
2013-03-06 04:37:00,65.7,63.5,29.96,NNW,338,4.0,9.0,93,0.00,,,0.01,meteohub,2013-03-06 09:37:00,
2013-03-06 04:42:00,64.0,59.4,29.98,NW,309,5.0,10.0,85,0.00,,,0.01,meteohub,2013-03-06 09:42:00,
2013-03-06 04:47:00,62.4,58.1,29.98,NE,43,4.0,10.0,86,0.00,,,0.01,meteohub,2013-03-06 09:47:00,
2013-03-06 04:52:00,61.5,57.9,29.98,NW,323,3.0,10.0,88,0.00,,,0.01,meteohub,2013-03-06 09:52:00,
2013-03-06 04:57:00,60.8,57.2,29.98,NW,307,2.0,8.0,88,0.00,,,0.01,meteohub,2013-03-06 09:57:00,
2013-03-06 05:02:00,60.4,56.8,29.99,NNW,327,2.0,8.0,88,0.00,,,0.01,meteohub,2013-03-06 10:02:00,
2013-03-06 05:07:00,60.3,57.0,29.99,NW,310,2.0,7.0,89,0.00,,,0.01,meteohub,2013-03-06 10:07:00,
2013-03-06 05:12:00,60.3,57.0,29.99,NNW,344,2.0,7.0,89,0.00,,,0.01,meteohub,2013-03-06 10:12:00,
2013-03-06 05:17:00,60.3,57.0,30.00,ENE,70,5.0,8.0,89,0.00,,,0.01,meteohub,2013-03-06 10:17:00,
2013-03-06 05:22:00,59.7,56.1,30.00,NNW,335,2.0,10.0,88,0.00,,,0.01,meteohub,2013-03-06 10:22:00,
2013-03-06 05:27:00,59.4,55.4,30.01,North,350,3.0,10.0,87,0.00,,,0.01,meteohub,2013-03-06 10:27:00,
2013-03-06 05:32:00,58.8,55.0,30.01,NNW,338,5.0,10.0,87,0.00,,,0.01,meteohub,2013-03-06 10:32:00,
2013-03-06 05:39:00,58.1,52.9,30.01,NW,322,5.0,11.0,83,0.00,,,0.01,meteohub,2013-03-06 10:39:00,
2013-03-06 05:45:00,57.6,51.4,30.02,NW,323,3.0,11.0,80,0.00,,,0.01,meteohub,2013-03-06 10:45:00,
2013-03-06 05:51:00,57.0,51.3,30.03,NE,55,9.0,9.0,81,0.00,,,0.01,meteohub,2013-03-06 10:51:00,
2013-03-06 05:57:00,56.7,50.5,30.03,North,350,3.0,17.0,80,0.00,,,0.01,meteohub,2013-03-06 10:57:00,
2013-03-06 06:02:00,56.3,49.5,30.04,NNE,30,4.0,17.0,78,0.00,,,0.01,meteohub,2013-03-06 11:02:00,
2013-03-06 06:07:00,55.9,48.6,30.04,WNW,297,4.0,17.0,76,0.00,,,0.01,meteohub,2013-03-06 11:07:00,
2013-03-06 06:12:00,55.8,48.4,30.04,NNE,13,4.0,14.0,76,0.00,,,0.01,meteohub,2013-03-06 11:12:00,
2013-03-06 06:17:00,55.0,46.6,30.04,NNW,340,2.0,14.0,73,0.00,,,0.01,meteohub,2013-03-06 11:17:00,
2013-03-06 06:24:00,54.5,45.7,30.05,North,0,5.0,14.0,72,0.00,,,0.01,meteohub,2013-03-06 11:24:00,
2013-03-06 06:30:00,54.1,45.3,30.05,NNW,339,3.0,10.0,72,0.00,,,0.01,meteohub,2013-03-06 11:30:00,
2013-03-06 06:36:00,54.0,45.5,30.05,North,5,4.0,10.0,73,0.00,,,0.01,meteohub,2013-03-06 11:36:00,
2013-03-06 06:42:00,53.8,45.7,30.06,NNE,23,4.0,12.0,74,0.00,,,0.01,meteohub,2013-03-06 11:42:00,
2013-03-06 06:47:00,53.4,45.3,30.06,WNW,300,1.0,12.0,74,0.00,,,0.01,meteohub,2013-03-06 11:47:00,
2013-03-06 06:52:00,53.2,44.1,30.06,NE,42,5.0,8.0,71,0.00,,,0.01,meteohub,2013-03-06 11:52:00,
2013-03-06 06:57:00,53.4,44.6,30.06,NNW,339,2.0,9.0,72,0.00,,,0.01,meteohub,2013-03-06 11:57:00,
2013-03-06 07:02:00,53.4,45.0,30.07,North,355,3.0,9.0,73,0.00,,,0.01,meteohub,2013-03-06 12:02:00,
2013-03-06 07:07:00,53.4,45.3,30.07,NW,326,2.0,12.0,74,0.00,,,0.01,meteohub,2013-03-06 12:07:00,
2013-03-06 07:12:00,53.4,45.3,30.08,North,0,5.0,12.0,74,0.00,,,0.01,meteohub,2013-03-06 12:12:00,
2013-03-06 07:17:00,53.2,44.8,30.08,North,5,4.0,9.0,73,0.00,,,0.01,meteohub,2013-03-06 12:17:00,
2013-03-06 07:22:00,53.1,44.2,30.08,NNW,343,3.0,11.0,72,0.00,,,0.01,meteohub,2013-03-06 12:22:00,
2013-03-06 07:27:00,52.9,43.7,30.09,West,270,5.0,11.0,71,0.00,,,0.01,meteohub,2013-03-06 12:27:00,
2013-03-06 07:32:00,52.9,44.1,30.09,NNE,20,6.0,11.0,72,0.00,,,0.01,meteohub,2013-03-06 12:32:00,
2013-03-06 07:37:00,52.9,43.7,30.09,North,10,4.0,12.0,71,0.00,,,0.01,meteohub,2013-03-06 12:37:00,
2013-03-06 07:42:00,52.9,43.7,30.09,NNE,18,4.0,14.0,71,0.00,,,0.01,meteohub,2013-03-06 12:42:00,
2013-03-06 07:47:00,52.7,43.5,30.09,NW,319,3.0,14.0,71,0.00,,,0.01,meteohub,2013-03-06 12:47:00,
2013-03-06 07:52:00,52.9,43.3,30.09,NE,44,7.0,14.0,70,0.00,,,0.01,meteohub,2013-03-06 12:52:00,
2013-03-06 07:57:00,52.9,43.3,30.10,NNE,28,5.0,16.0,70,0.00,,,0.01,meteohub,2013-03-06 12:57:00,
2013-03-06 08:03:00,52.9,43.7,30.10,NE,55,3.0,16.0,71,0.00,,,0.01,meteohub,2013-03-06 13:03:00,
2013-03-06 08:09:00,53.1,43.5,30.10,ENE,68,5.0,16.0,70,0.00,,,0.01,meteohub,2013-03-06 13:09:00,
2013-03-06 08:15:00,53.1,43.5,30.10,NW,315,3.0,11.0,70,0.00,,,0.01,meteohub,2013-03-06 13:15:00,
2013-03-06 08:22:00,53.2,43.7,30.10,North,351,8.0,11.0,70,0.00,,,0.01,meteohub,2013-03-06 13:22:00,
2013-03-06 08:27:00,53.6,44.1,30.10,NE,40,3.0,14.0,70,0.00,,,0.01,meteohub,2013-03-06 13:27:00,
2013-03-06 08:32:00,54.0,43.7,30.11,NNW,327,3.0,15.0,68,0.00,,,0.01,meteohub,2013-03-06 13:32:00,
2013-03-06 08:37:00,54.1,43.9,30.11,North,355,2.0,15.0,68,0.00,,,0.01,meteohub,2013-03-06 13:37:00,
2013-03-06 08:42:00,54.3,44.1,30.11,NNW,346,6.0,15.0,68,0.00,,,0.01,meteohub,2013-03-06 13:42:00,
2013-03-06 08:47:00,54.7,44.2,30.11,NNW,331,2.0,17.0,68,0.00,,,0.01,meteohub,2013-03-06 13:47:00,
2013-03-06 08:52:00,55.0,44.2,30.11,North,0,4.0,17.0,67,0.00,,,0.01,meteohub,2013-03-06 13:52:00,
2013-03-06 08:57:00,55.0,43.9,30.11,NNE,30,3.0,17.0,66,0.00,,,0.01,meteohub,2013-03-06 13:57:00,
2013-03-06 09:04:00,55.8,44.6,30.12,NNW,348,3.0,13.0,66,0.00,,,0.01,meteohub,2013-03-06 14:04:00,
2013-03-06 09:10:00,55.9,44.4,30.12,NW,308,3.0,14.0,65,0.00,,,0.01,meteohub,2013-03-06 14:10:00,
2013-03-06 09:16:00,56.3,43.9,30.12,NW,311,5.0,14.0,63,0.00,,,0.01,meteohub,2013-03-06 14:16:00,
2013-03-06 09:22:00,56.5,44.1,30.12,NNW,338,2.0,14.0,63,0.00,,,0.01,meteohub,2013-03-06 14:22:00,
2013-03-06 09:27:00,56.5,43.7,30.12,NNW,340,2.0,11.0,62,0.00,,,0.01,meteohub,2013-03-06 14:27:00,
2013-03-06 09:32:00,56.8,44.4,30.13,WNW,284,3.0,11.0,63,0.00,,,0.01,meteohub,2013-03-06 14:32:00,
2013-03-06 09:37:00,57.0,44.1,30.12,NW,310,3.0,11.0,62,0.00,,,0.01,meteohub,2013-03-06 14:37:00,
2013-03-06 09:42:00,57.4,45.0,30.12,NNW,338,2.0,10.0,63,0.00,,,0.01,meteohub,2013-03-06 14:42:00,
2013-03-06 09:47:00,57.2,44.2,30.13,North,5,5.0,10.0,62,0.00,,,0.01,meteohub,2013-03-06 14:47:00,
2013-03-06 09:52:00,57.4,43.7,30.13,NW,321,2.0,12.0,60,0.00,,,0.01,meteohub,2013-03-06 14:52:00,
2013-03-06 09:58:00,57.4,43.7,30.13,NNW,346,5.0,12.0,60,0.00,,,0.01,meteohub,2013-03-06 14:58:00,
2013-03-06 10:04:00,57.7,43.9,30.13,NE,53,6.0,12.0,60,0.00,,,0.01,meteohub,2013-03-06 15:04:00,
2013-03-06 10:10:00,57.7,43.9,30.13,NW,310,4.0,11.0,60,0.00,,,0.01,meteohub,2013-03-06 15:10:00,
2013-03-06 10:17:00,57.9,44.6,30.13,NE,55,3.0,11.0,61,0.00,,,0.01,meteohub,2013-03-06 15:17:00,
2013-03-06 10:22:00,57.9,43.2,30.13,NNW,331,4.0,10.0,58,0.00,,,0.01,meteohub,2013-03-06 15:22:00,
2013-03-06 10:27:00,57.7,43.5,30.14,NE,38,8.0,10.0,59,0.00,,,0.01,meteohub,2013-03-06 15:27:00,
2013-03-06 10:32:00,57.9,42.8,30.14,NNW,333,2.0,10.0,57,0.00,,,0.01,meteohub,2013-03-06 15:32:00,
2013-03-06 10:37:00,58.5,43.3,30.14,North,5,4.0,10.0,57,0.00,,,0.01,meteohub,2013-03-06 15:37:00,
2013-03-06 10:42:00,58.5,42.4,30.14,ENE,71,5.0,8.0,55,0.00,,,0.01,meteohub,2013-03-06 15:42:00,
2013-03-06 10:47:00,58.5,42.4,30.14,North,5,3.0,9.0,55,0.00,,,0.01,meteohub,2013-03-06 15:47:00,
2013-03-06 10:52:00,58.5,41.9,30.14,NNW,327,5.0,9.0,54,0.00,,,0.01,meteohub,2013-03-06 15:52:00,
2013-03-06 10:57:00,58.6,43.0,30.14,East,98,5.0,9.0,56,0.00,,,0.01,meteohub,2013-03-06 15:57:00,
2013-03-06 11:02:00,58.8,41.7,30.14,NNW,347,4.0,9.0,53,0.00,,,0.01,meteohub,2013-03-06 16:02:00,
2013-03-06 11:07:00,58.6,41.5,30.14,East,85,5.0,11.0,53,0.00,,,0.01,meteohub,2013-03-06 16:07:00,
2013-03-06 11:12:00,59.2,42.1,30.13,NNW,336,3.0,11.0,53,0.00,,,0.01,meteohub,2013-03-06 16:12:00,
2013-03-06 11:17:00,59.5,42.4,30.13,WNW,303,3.0,9.0,53,0.00,,,0.01,meteohub,2013-03-06 16:17:00,
2013-03-06 11:22:00,59.4,40.6,30.13,NW,316,4.0,9.0,50,0.00,,,0.01,meteohub,2013-03-06 16:22:00,
2013-03-06 11:27:00,58.8,39.7,30.12,NW,310,3.0,9.0,49,0.00,,,0.01,meteohub,2013-03-06 16:27:00,
2013-03-06 11:32:00,58.8,40.3,30.12,NNE,28,4.0,10.0,50,0.00,,,0.01,meteohub,2013-03-06 16:32:00,
2013-03-06 11:37:00,59.5,40.8,30.12,NNE,18,5.0,10.0,50,0.00,,,0.01,meteohub,2013-03-06 16:37:00,
2013-03-06 11:42:00,60.1,41.4,30.12,North,355,4.0,10.0,50,0.00,,,0.01,meteohub,2013-03-06 16:42:00,
2013-03-06 11:47:00,60.3,42.1,30.12,NE,55,2.0,8.0,51,0.00,,,0.01,meteohub,2013-03-06 16:47:00,
2013-03-06 11:52:00,60.6,41.4,30.11,WNW,300,3.0,9.0,49,0.00,,,0.01,meteohub,2013-03-06 16:52:00,
2013-03-06 11:57:00,59.7,41.0,30.11,NE,48,10.0,10.0,50,0.00,,,0.01,meteohub,2013-03-06 16:57:00,
2013-03-06 12:02:00,60.1,41.4,30.11,NW,323,8.0,10.0,50,0.00,,,0.01,meteohub,2013-03-06 17:02:00,
2013-03-06 12:07:00,59.7,41.0,30.10,NW,304,6.0,10.0,50,0.00,,,0.01,meteohub,2013-03-06 17:07:00,
2013-03-06 12:12:00,59.7,42.1,30.10,West,267,3.0,12.0,52,0.00,,,0.01,meteohub,2013-03-06 17:12:00,
2013-03-06 12:17:00,60.3,41.5,30.10,NNW,330,4.0,12.0,50,0.00,,,0.01,meteohub,2013-03-06 17:17:00,
2013-03-06 12:22:00,60.3,42.1,30.10,NNW,345,2.0,12.0,51,0.00,,,0.01,meteohub,2013-03-06 17:22:00,
2013-03-06 12:27:00,60.1,41.4,30.10,WNW,302,5.0,11.0,50,0.00,,,0.01,meteohub,2013-03-06 17:27:00,
2013-03-06 12:32:00,60.3,42.1,30.10,West,275,3.0,13.0,51,0.00,,,0.01,meteohub,2013-03-06 17:32:00,
2013-03-06 12:37:00,60.3,41.0,30.09,NNW,328,5.0,13.0,49,0.00,,,0.01,meteohub,2013-03-06 17:37:00,
2013-03-06 12:42:00,60.1,43.0,30.09,WNW,296,7.0,13.0,53,0.00,,,0.01,meteohub,2013-03-06 17:42:00,
2013-03-06 12:47:00,60.4,42.8,30.09,NW,325,2.0,12.0,52,0.00,,,0.01,meteohub,2013-03-06 17:47:00,
2013-03-06 12:52:00,60.3,42.6,30.09,NW,311,4.0,10.0,52,0.00,,,0.01,meteohub,2013-03-06 17:52:00,
2013-03-06 12:57:00,60.1,43.0,30.09,WNW,302,2.0,11.0,53,0.00,,,0.01,meteohub,2013-03-06 17:57:00,
2013-03-06 13:02:00,60.8,42.6,30.08,NE,34,3.0,11.0,51,0.00,,,0.01,meteohub,2013-03-06 18:02:00,
2013-03-06 13:07:00,61.0,42.8,30.08,WNW,302,5.0,11.0,51,0.00,,,0.01,meteohub,2013-03-06 18:07:00,
2013-03-06 13:12:00,60.4,42.3,30.08,NW,323,8.0,11.0,51,0.00,,,0.01,meteohub,2013-03-06 18:12:00,
2013-03-06 13:17:00,59.9,42.8,30.08,NW,317,3.0,11.0,53,0.00,,,0.01,meteohub,2013-03-06 18:17:00,
2013-03-06 13:22:00,60.1,42.4,30.08,NW,311,5.0,11.0,52,0.00,,,0.01,meteohub,2013-03-06 18:22:00,
2013-03-06 13:27:00,60.1,41.4,30.07,NW,325,4.0,11.0,50,0.00,,,0.01,meteohub,2013-03-06 18:27:00,
2013-03-06 13:32:00,59.7,42.6,30.07,NE,39,4.0,13.0,53,0.00,,,0.01,meteohub,2013-03-06 18:32:00,
2013-03-06 13:37:00,59.5,40.3,30.08,NW,310,5.0,13.0,49,0.00,,,0.01,meteohub,2013-03-06 18:37:00,
2013-03-06 13:42:00,59.5,41.9,30.07,NNW,333,6.0,12.0,52,0.00,,,0.01,meteohub,2013-03-06 18:42:00,
2013-03-06 13:47:00,60.3,43.0,30.06,NW,323,3.0,10.0,53,0.00,,,0.01,meteohub,2013-03-06 18:47:00,
2013-03-06 13:52:00,60.1,41.9,30.07,NNW,327,2.0,10.0,51,0.00,,,0.01,meteohub,2013-03-06 18:52:00,
2013-03-06 13:57:00,60.4,42.3,30.07,North,355,4.0,10.0,51,0.00,,,0.01,meteohub,2013-03-06 18:57:00,
2013-03-06 14:02:00,59.7,42.6,30.06,NW,309,7.0,14.0,53,0.00,,,0.01,meteohub,2013-03-06 19:02:00,
2013-03-06 14:07:00,59.7,43.5,30.07,NNW,347,6.0,14.0,55,0.00,,,0.01,meteohub,2013-03-06 19:07:00,
2013-03-06 14:12:00,60.1,43.0,30.06,WNW,300,6.0,14.0,53,0.00,,,0.01,meteohub,2013-03-06 19:12:00,
2013-03-06 14:17:00,59.9,42.8,30.06,NNW,336,6.0,15.0,53,0.00,,,0.01,meteohub,2013-03-06 19:17:00,
2013-03-06 14:22:00,59.9,42.8,30.06,NNW,331,9.0,15.0,53,0.00,,,0.01,meteohub,2013-03-06 19:22:00,
2013-03-06 14:27:00,60.1,43.0,30.06,WNW,291,5.0,15.0,53,0.00,,,0.01,meteohub,2013-03-06 19:27:00,
2013-03-06 14:32:00,60.1,43.0,30.06,NW,315,4.0,12.0,53,0.00,,,0.01,meteohub,2013-03-06 19:32:00,
2013-03-06 14:39:00,59.9,41.7,30.06,WNW,297,6.0,12.0,51,0.00,,,0.01,meteohub,2013-03-06 19:39:00,
2013-03-06 14:45:00,60.3,42.6,30.06,ENE,67,3.0,13.0,52,0.00,,,0.01,meteohub,2013-03-06 19:45:00,
2013-03-06 14:51:00,60.8,43.0,30.06,NW,309,4.0,10.0,52,0.00,,,0.01,meteohub,2013-03-06 19:51:00,
2013-03-06 14:57:00,60.6,41.9,30.05,NW,307,2.0,7.0,50,0.00,,,0.01,meteohub,2013-03-06 19:57:00,
2013-03-06 15:02:00,59.5,42.4,30.06,WNW,294,3.0,9.0,53,0.00,,,0.01,meteohub,2013-03-06 20:02:00,
2013-03-06 15:07:00,59.7,41.5,30.06,NNW,348,3.0,12.0,51,0.00,,,0.01,meteohub,2013-03-06 20:07:00,
2013-03-06 15:12:00,59.5,41.4,30.06,NW,305,4.0,12.0,51,0.00,,,0.01,meteohub,2013-03-06 20:12:00,
2013-03-06 15:17:00,59.0,41.4,30.06,NNW,348,4.0,12.0,52,0.00,,,0.01,meteohub,2013-03-06 20:17:00,
2013-03-06 15:22:00,59.5,41.9,30.06,NW,304,5.0,11.0,52,0.00,,,0.01,meteohub,2013-03-06 20:22:00,
2013-03-06 15:27:00,59.9,42.3,30.06,WNW,294,8.0,11.0,52,0.00,,,0.01,meteohub,2013-03-06 20:27:00,
2013-03-06 15:32:00,59.4,41.7,30.06,NW,319,4.0,11.0,52,0.00,,,0.01,meteohub,2013-03-06 20:32:00,
2013-03-06 15:37:00,59.7,42.1,30.06,NNE,17,5.0,11.0,52,0.00,,,0.01,meteohub,2013-03-06 20:37:00,
2013-03-06 15:42:00,59.7,41.5,30.06,NW,313,6.0,11.0,51,0.00,,,0.01,meteohub,2013-03-06 20:42:00,
2013-03-06 15:47:00,59.5,41.4,30.06,WNW,300,2.0,10.0,51,0.00,,,0.01,meteohub,2013-03-06 20:47:00,
2013-03-06 15:52:00,59.5,40.8,30.06,WNW,303,3.0,11.0,50,0.00,,,0.01,meteohub,2013-03-06 20:52:00,
2013-03-06 15:57:00,59.5,41.9,30.06,NW,309,4.0,11.0,52,0.00,,,0.01,meteohub,2013-03-06 20:57:00,
2013-03-06 16:02:00,60.3,42.1,30.05,NW,308,2.0,11.0,51,0.00,,,0.01,meteohub,2013-03-06 21:02:00,
2013-03-06 16:07:00,60.3,42.1,30.06,NNE,19,3.0,8.0,51,0.00,,,0.01,meteohub,2013-03-06 21:07:00,
2013-03-06 16:12:00,60.4,42.8,30.05,NNW,331,2.0,8.0,52,0.00,,,0.01,meteohub,2013-03-06 21:12:00,
2013-03-06 16:17:00,60.4,42.8,30.05,WNW,292,5.0,11.0,52,0.00,,,0.01,meteohub,2013-03-06 21:17:00,
2013-03-06 16:22:00,60.3,42.6,30.05,NW,318,4.0,11.0,52,0.00,,,0.01,meteohub,2013-03-06 21:22:00,
2013-03-06 16:27:00,59.5,41.4,30.05,WNW,300,6.0,11.0,51,0.00,,,0.01,meteohub,2013-03-06 21:27:00,
2013-03-06 16:32:00,59.4,41.7,30.06,WNW,300,3.0,11.0,52,0.00,,,0.01,meteohub,2013-03-06 21:32:00,
2013-03-06 16:37:00,59.0,41.4,30.05,West,268,5.0,11.0,52,0.00,,,0.01,meteohub,2013-03-06 21:37:00,
2013-03-06 16:42:00,59.4,42.8,30.05,NW,315,2.0,13.0,54,0.00,,,0.01,meteohub,2013-03-06 21:42:00,
2013-03-06 16:47:00,59.7,42.1,30.05,West,265,2.0,13.0,52,0.00,,,0.01,meteohub,2013-03-06 21:47:00,
2013-03-06 16:52:00,59.4,41.7,30.05,NW,319,4.0,13.0,52,0.00,,,0.01,meteohub,2013-03-06 21:52:00,
2013-03-06 16:57:00,58.6,41.5,30.05,NW,307,3.0,10.0,53,0.00,,,0.01,meteohub,2013-03-06 21:57:00,
2013-03-06 17:02:00,58.5,42.4,30.04,North,0,3.0,12.0,55,0.00,,,0.01,meteohub,2013-03-06 22:02:00,
2013-03-06 17:07:00,58.6,42.4,30.04,North,0,6.0,12.0,55,0.00,,,0.01,meteohub,2013-03-06 22:07:00,
2013-03-06 17:12:00,58.3,42.3,30.05,NW,304,3.0,12.0,55,0.00,,,0.01,meteohub,2013-03-06 22:12:00,
2013-03-06 17:17:00,58.5,42.4,30.04,NW,304,4.0,10.0,55,0.00,,,0.01,meteohub,2013-03-06 22:17:00,
2013-03-06 17:22:00,58.5,41.9,30.05,WNW,294,3.0,9.0,54,0.00,,,0.01,meteohub,2013-03-06 22:22:00,
2013-03-06 17:27:00,58.3,42.3,30.05,WNW,296,4.0,9.0,55,0.00,,,0.01,meteohub,2013-03-06 22:27:00,
2013-03-06 17:32:00,58.1,42.4,30.05,WNW,302,1.0,9.0,56,0.00,,,0.01,meteohub,2013-03-06 22:32:00,
2013-03-06 17:37:00,57.7,42.1,30.05,West,259,3.0,10.0,56,0.00,,,0.01,meteohub,2013-03-06 22:37:00,
2013-03-06 17:42:00,57.7,42.1,30.05,WSW,242,2.0,10.0,56,0.00,,,0.01,meteohub,2013-03-06 22:42:00,
2013-03-06 17:47:00,57.7,42.1,30.05,WNW,291,1.0,10.0,56,0.00,,,0.01,meteohub,2013-03-06 22:47:00,
2013-03-06 17:52:00,57.4,41.9,30.05,NW,307,2.0,8.0,56,0.00,,,0.01,meteohub,2013-03-06 22:52:00,
2013-03-06 17:57:00,56.8,41.7,30.05,NW,309,2.0,12.0,57,0.00,,,0.01,meteohub,2013-03-06 22:57:00,
2013-03-06 18:02:00,56.7,42.1,30.05,WNW,294,3.0,12.0,58,0.00,,,0.01,meteohub,2013-03-06 23:02:00,
2013-03-06 18:07:00,56.3,41.7,30.06,North,5,3.0,9.0,58,0.00,,,0.01,meteohub,2013-03-06 23:07:00,
2013-03-06 18:12:00,55.9,41.4,30.06,WNW,295,3.0,9.0,58,0.00,,,0.01,meteohub,2013-03-06 23:12:00,
2013-03-06 18:17:00,55.8,42.1,30.05,East,85,5.0,8.0,60,0.00,,,0.01,meteohub,2013-03-06 23:17:00,
2013-03-06 18:22:00,55.6,41.9,30.06,NNW,346,4.0,8.0,60,0.00,,,0.01,meteohub,2013-03-06 23:22:00,
2013-03-06 18:27:00,55.6,41.9,30.06,West,278,5.0,8.0,60,0.00,,,0.01,meteohub,2013-03-06 23:27:00,
2013-03-06 18:32:00,55.2,41.5,30.06,SE,129,6.0,8.0,60,0.00,,,0.01,meteohub,2013-03-06 23:32:00,
2013-03-06 18:37:00,55.2,41.5,30.06,NW,315,1.0,8.0,60,0.00,,,0.01,meteohub,2013-03-06 23:37:00,
2013-03-06 18:42:00,55.0,41.4,30.06,NW,310,5.0,7.0,60,0.00,,,0.01,meteohub,2013-03-06 23:42:00,
2013-03-06 18:47:00,55.0,41.4,30.06,NW,311,2.0,8.0,60,0.00,,,0.01,meteohub,2013-03-06 23:47:00,
2013-03-06 18:52:00,54.9,41.7,30.07,NW,323,3.0,8.0,61,0.00,,,0.01,meteohub,2013-03-06 23:52:00,
2013-03-06 18:57:00,54.9,41.7,30.07,North,350,5.0,8.0,61,0.00,,,0.01,meteohub,2013-03-06 23:57:00,
2013-03-06 19:02:00,54.9,42.1,30.07,NW,315,2.0,6.0,62,0.00,,,0.01,meteohub,2013-03-07 00:02:00,
2013-03-06 19:07:00,54.9,42.4,30.07,NW,311,4.0,6.0,63,0.00,,,0.01,meteohub,2013-03-07 00:07:00,
2013-03-06 19:12:00,54.7,42.3,30.07,NE,55,3.0,6.0,63,0.00,,,0.01,meteohub,2013-03-07 00:12:00,
2013-03-06 19:17:00,54.9,43.0,30.07,NNW,342,0.0,7.0,64,0.00,,,0.01,meteohub,2013-03-07 00:17:00,
2013-03-06 19:22:00,54.7,43.2,30.07,NNW,327,2.0,7.0,65,0.00,,,0.01,meteohub,2013-03-07 00:22:00,
2013-03-06 19:27:00,54.7,42.8,30.08,NW,311,1.0,7.0,64,0.00,,,0.01,meteohub,2013-03-07 00:27:00,
2013-03-06 19:32:00,54.7,42.8,30.08,NW,324,3.0,6.0,64,0.00,,,0.01,meteohub,2013-03-07 00:32:00,
2013-03-06 19:37:00,54.7,41.9,30.08,North,5,2.0,6.0,62,0.00,,,0.01,meteohub,2013-03-07 00:37:00,
2013-03-06 19:42:00,54.7,41.9,30.08,NW,309,3.0,6.0,62,0.00,,,0.01,meteohub,2013-03-07 00:42:00,
2013-03-06 19:47:00,54.7,42.3,30.08,NW,304,3.0,6.0,63,0.00,,,0.01,meteohub,2013-03-07 00:47:00,
2013-03-06 19:52:00,54.5,42.6,30.08,NW,313,3.0,6.0,64,0.00,,,0.01,meteohub,2013-03-07 00:52:00,
2013-03-06 19:57:00,54.3,42.1,30.08,NNW,335,1.0,6.0,63,0.00,,,0.01,meteohub,2013-03-07 00:57:00,
2013-03-06 20:02:00,54.3,42.1,30.08,NNW,334,3.0,7.0,63,0.00,,,0.01,meteohub,2013-03-07 01:02:00,
2013-03-06 20:07:00,54.5,42.6,30.08,NW,326,4.0,7.0,64,0.00,,,0.01,meteohub,2013-03-07 01:07:00,
2013-03-06 20:14:00,54.3,42.4,30.09,NW,315,4.0,7.0,64,0.00,,,0.01,meteohub,2013-03-07 01:14:00,
2013-03-06 20:20:00,54.3,42.4,30.09,WNW,288,1.0,7.0,64,0.00,,,0.01,meteohub,2013-03-07 01:20:00,
2013-03-06 20:26:00,54.7,42.8,30.09,NW,321,3.0,5.0,64,0.00,,,0.01,meteohub,2013-03-07 01:26:00,
2013-03-06 20:32:00,54.7,42.8,30.09,NW,326,2.0,6.0,64,0.00,,,0.01,meteohub,2013-03-07 01:32:00,
2013-03-06 20:37:00,54.3,42.8,30.09,NNW,335,1.0,6.0,65,0.00,,,0.01,meteohub,2013-03-07 01:37:00,
2013-03-06 20:42:00,54.1,42.6,30.09,NW,317,2.0,6.0,65,0.00,,,0.01,meteohub,2013-03-07 01:42:00,
2013-03-06 20:47:00,54.1,42.6,30.09,NW,315,4.0,4.0,65,0.00,,,0.01,meteohub,2013-03-07 01:47:00,
2013-03-06 20:52:00,54.3,42.8,30.09,NW,313,4.0,5.0,65,0.00,,,0.01,meteohub,2013-03-07 01:52:00,
2013-03-06 20:57:00,54.5,42.6,30.09,NW,309,4.0,6.0,64,0.00,,,0.01,meteohub,2013-03-07 01:57:00,
2013-03-06 21:02:00,54.7,42.8,30.09,NNW,329,2.0,6.0,64,0.00,,,0.01,meteohub,2013-03-07 02:02:00,
2013-03-06 21:07:00,54.7,42.8,30.09,NW,304,5.0,6.0,64,0.00,,,0.01,meteohub,2013-03-07 02:07:00,
2013-03-06 21:12:00,54.9,43.0,30.09,NNW,337,1.0,6.0,64,0.00,,,0.01,meteohub,2013-03-07 02:12:00,
2013-03-06 21:17:00,54.9,43.0,30.10,NW,309,5.0,6.0,64,0.00,,,0.01,meteohub,2013-03-07 02:17:00,
2013-03-06 21:22:00,54.9,43.0,30.10,NW,314,7.0,7.0,64,0.00,,,0.01,meteohub,2013-03-07 02:22:00,
2013-03-06 21:27:00,54.9,42.4,30.10,NW,312,3.0,7.0,63,0.00,,,0.01,meteohub,2013-03-07 02:27:00,
2013-03-06 21:32:00,54.9,42.4,30.10,NW,313,1.0,7.0,63,0.00,,,0.01,meteohub,2013-03-07 02:32:00,
2013-03-06 21:37:00,54.9,43.0,30.10,NNW,329,3.0,8.0,64,0.00,,,0.01,meteohub,2013-03-07 02:37:00,
2013-03-06 21:42:00,55.0,43.5,30.10,NW,321,1.0,8.0,65,0.00,,,0.01,meteohub,2013-03-07 02:42:00,
2013-03-06 21:47:00,55.0,43.5,30.11,NW,313,5.0,7.0,65,0.00,,,0.01,meteohub,2013-03-07 02:47:00,
2013-03-06 21:52:00,55.2,44.1,30.11,NNW,346,2.0,10.0,66,0.00,,,0.01,meteohub,2013-03-07 02:52:00,
2013-03-06 21:57:00,55.2,43.7,30.11,North,350,4.0,10.0,65,0.00,,,0.01,meteohub,2013-03-07 02:57:00,
2013-03-06 22:02:00,55.2,43.7,30.11,NW,313,3.0,10.0,65,0.00,,,0.01,meteohub,2013-03-07 03:02:00,
2013-03-06 22:07:00,55.4,43.3,30.12,NNE,23,2.0,7.0,64,0.00,,,0.01,meteohub,2013-03-07 03:07:00,
2013-03-06 22:12:00,55.6,43.2,30.12,NNW,348,1.0,6.0,63,0.00,,,0.01,meteohub,2013-03-07 03:12:00,
2013-03-06 22:18:00,55.4,42.3,30.12,NNW,338,1.0,5.0,61,0.00,,,0.01,meteohub,2013-03-07 03:18:00,
2013-03-06 22:24:00,55.2,42.1,30.12,NNW,332,3.0,5.0,61,0.00,,,0.01,meteohub,2013-03-07 03:24:00,
2013-03-06 22:30:00,55.2,42.1,30.12,NE,34,1.0,8.0,61,0.00,,,0.01,meteohub,2013-03-07 03:30:00,
2013-03-06 22:36:00,55.0,41.9,30.13,NNW,327,4.0,8.0,61,0.00,,,0.01,meteohub,2013-03-07 03:36:00,
2013-03-06 22:42:00,55.0,41.9,30.12,NNW,335,2.0,8.0,61,0.00,,,0.01,meteohub,2013-03-07 03:42:00,
2013-03-06 22:47:00,55.0,41.9,30.13,North,9,3.0,8.0,61,0.00,,,0.01,meteohub,2013-03-07 03:47:00,
2013-03-06 22:52:00,55.0,42.3,30.13,ENE,65,0.0,8.0,62,0.00,,,0.01,meteohub,2013-03-07 03:52:00,
2013-03-06 22:57:00,54.7,42.3,30.12,ENE,63,3.0,5.0,63,0.00,,,0.01,meteohub,2013-03-07 03:57:00,
2013-03-06 23:03:00,54.5,42.1,30.12,NNW,329,1.0,5.0,63,0.00,,,0.01,meteohub,2013-03-07 04:03:00,
2013-03-06 23:09:00,54.3,42.1,30.12,North,355,1.0,5.0,63,0.00,,,0.01,meteohub,2013-03-07 04:09:00,
2013-03-06 23:15:00,54.3,42.4,30.13,NNE,20,1.0,6.0,64,0.00,,,0.01,meteohub,2013-03-07 04:15:00,
2013-03-06 23:21:00,54.1,42.3,30.12,North,355,3.0,8.0,64,0.00,,,0.01,meteohub,2013-03-07 04:21:00,
2013-03-06 23:27:00,54.1,42.3,30.12,East,82,1.0,9.0,64,0.00,,,0.01,meteohub,2013-03-07 04:27:00,
2013-03-06 23:32:00,54.0,42.1,30.12,North,11,2.0,9.0,64,0.00,,,0.01,meteohub,2013-03-07 04:32:00,
2013-03-06 23:37:00,53.8,41.9,30.13,NE,39,3.0,6.0,64,0.00,,,0.01,meteohub,2013-03-07 04:37:00,
2013-03-06 23:42:00,53.8,41.9,30.12,NNW,332,3.0,8.0,64,0.00,,,0.01,meteohub,2013-03-07 04:42:00,
2013-03-06 23:47:00,53.6,41.7,30.12,NW,321,1.0,8.0,64,0.00,,,0.01,meteohub,2013-03-07 04:47:00,
2013-03-06 23:52:00,53.4,41.5,30.13,NE,44,3.0,8.0,64,0.00,,,0.01,meteohub,2013-03-07 04:52:00,
2013-03-06 23:57:00,53.4,41.5,30.13,North,11,3.0,8.0,64,0.00,,,0.01,meteohub,2013-03-07 04:57:00,